Flag for Germany Weather past 2 weeks in Wesel, North Rhine-Westphalia, Germany

Now
34 °F

Partly sunny.


Feels Like: 26 °F
Forecast: 23 / 29 °F
Wind: 9 mph from Northeast

Location: Niederrhein

Current Time: Dec 27, 2014 at 5:45:40 PM

Latest Report: Dec 27, 2014 at 4:50 PM


Visibility: N/A

Pressure: 29.50 "Hg

Humidity: 100%

Dew point: 34 °F

Location of WeselLocation

Historic Weather in Wesel — Graph

°F

Wesel temperature yesterday

Maximum temperature yesterday: 41 °F (at 12:50 PM)
Minimum temperature yesterday: 34 °F (at 6:20 AM)
Average temperature yesterday: 37 °F

Past Weeks' High & Low Weather Summary

 TemperatureHumidityPressure
High55 °F (Dec 18, 3:50 PM)100% (Dec 12, 4:20 PM)30.42 "Hg (Dec 12, 4:20 PM)
Low32 °F (Dec 27, 7:20 AM)67% (Dec 23, 11:50 AM)29.39 "Hg (Dec 12, 4:20 PM)
Average44 °F95%29.95 "Hg
* Reported Dec 12 4:20 PM — Dec 27 4:50 PM, Wesel, Weather by CustomWeather, © 2014

Note: Actual official high and low records may vary slightly from our data, if they occured in-between our weather recording intervals... More about our weather records

Advertising

Wesel weather history for previous 24 hours

 ConditionsComfort  
Time TempWeatherWind HumidityBarometerVisibility
4:50 PM
Dec 27
34 °FPartly sunny.9 mph100%29.50 "HgN/A
4:20 PM34 °FPartly sunny.9 mph100%29.50 "HgN/A
3:50 PM34 °FPartly sunny.9 mph100%29.47 "HgN/A
3:20 PM34 °FPartly sunny.8 mph100%29.47 "HgN/A
2:50 PM34 °FPartly sunny.8 mph100%29.45 "HgN/A
2:20 PM34 °FPartly sunny.9 mph100%29.45 "HgN/A
1:50 PM34 °FLight snow. Partly sunny.10 mph100%29.45 "Hg2 mi
1:20 PM34 °FSnow. Partly sunny.9 mph100%29.45 "Hg1 mi
12:50 PM32 °FSnow. Partly sunny.12 mph100%29.42 "Hg1 mi
12:20 PM32 °FLight snow. Partly sunny.10 mph100%29.42 "Hg3 mi
11:50 AM32 °FLight snow. Ice fog.12 mph100%29.45 "Hg1 mi
11:20 AM32 °FLight snow. Ice fog.12 mph100%29.42 "Hg1 mi
10:50 AM32 °FLight snow. Partly sunny.13 mph100%29.42 "Hg3 mi
10:20 AM32 °FSnow. Partly sunny.13 mph100%29.42 "Hg1 mi
9:50 AM32 °FRain. Partly sunny.14 mph100%29.42 "Hg1 mi
9:20 AM32 °FHeavy rain. Fog.14 mph100%29.42 "Hg1 mi
8:50 AM32 °FHeavy rain. Fog.16 mph100%29.45 "Hg1 mi
8:20 AM32 °FHeavy rain. Fog.16 mph100%29.45 "Hg1 mi
7:50 AM32 °FHeavy rain. Fog.20 mph100%29.45 "Hg1 mi
7:20 AM32 °FRain. Fog.20 mph100%29.47 "Hg1 mi
6:50 AM34 °FRain. Fog.20 mph100%29.50 "Hg1 mi
6:20 AM34 °FRain. Fog.20 mph100%29.53 "Hg1 mi
5:50 AM34 °FRain. Fog.18 mph100%29.56 "Hg1 mi
5:20 AM34 °FRain. Fog.18 mph100%29.59 "Hg2 mi
11:50 PM
Dec 26
36 °FClear.10 mph100%30.04 "Hg10 mi
11:20 PM36 °FClear.9 mph100%30.07 "Hg6 mi
10:50 PM37 °FPassing clouds.8 mph100%30.09 "Hg5 mi
10:20 PM37 °FPassing clouds.9 mph100%30.12 "Hg4 mi
9:50 PM36 °FPassing clouds.7 mph100%30.12 "Hg4 mi
9:20 PM36 °FFog.7 mph100%30.15 "Hg3 mi
8:50 PM36 °FClear.6 mph100%30.18 "Hg4 mi
8:20 PM37 °FPassing clouds.5 mph100%30.21 "Hg4 mi
7:50 PM39 °FPassing clouds.6 mph100%30.24 "Hg6 mi
7:20 PM37 °FPassing clouds.7 mph100%30.24 "Hg4 mi
6:50 PM37 °FPassing clouds.6 mph100%30.24 "Hg4 mi
6:20 PM37 °FPassing clouds.5 mph100%30.27 "Hg4 mi
5:50 PM37 °FFog.6 mph100%30.27 "Hg3 mi
5:20 PM37 °FFog.5 mph100%30.30 "Hg3 mi
Weather by CustomWeather, © 2014

See weather overviewHow to use our weather pages